www.pogodaiklimat.ru

Погода и климат >> Архив погоды >> Гана >> Хо


ПОГОДА в Хо

  • Прогноз погоды в Хо
  • Монитор погоды в Хо

АРХИВ ПОГОДЫ в Хо

Время (UTC), дата Ветер
(напр.,м/с)
 
Видим.   Явления Облачность Т
(С)
Тd
(С)
f
(%)
Тe
(С)
Тes
(С)
Комфортность P
(гПа)
Po
(гПа)
Тmin
(С)
Tmax
(С)
R
(мм)
R24
(мм)
S
(см)
09 8.09 ЮЗ 1 14 км 9/6 360 м
[Sc Ac trans]
+25.5 +23.1 87 +34 +37 очень
душно
1016.6 998.4
12 8.09 ЮЗ 1 14 км 9/5 360 м
[Cu Sc Ac trans]
+28.5 +24.4 79 +40 +47 очень
душно
1014.5 996.5
15 8.09 ЮВ 2 12 км {дождь} 8/6 360 м
[Cu Sc Ac trans]
+26.0 +24.6 92 +37 +40 очень
душно
1012.9 994.8
18 8.09 штиль 0 12 км {дождь} 8/6 360 м
[Sc Ac trans]
+25.5 +23.4 88 +34 +34 очень
душно
1012.9 994.8 +29.6 6
21 8.09 ЮЗ 1 12 км 8/6 360 м
[Sc Ac trans]
+25.1 +23.6 91 +34 +34 очень
душно
1015.4 997.2
00 9.09 штиль 0 12 км 8/8 360 м
[Sc]
+23.5 +22.5 94 +31 +31 очень
душно
1015.9 997.6
03 9.09 штиль 0 12 км 9/9 360 м
[Sc]
+23.1 +22.7 98 +32 +32 очень
душно
1013.9 995.6
06 9.09 ЮЗ 1 12 км 9/9 360 м
[Sc]
+23.5 +23.2 98 +31 +31 очень
душно
1015.1 996.8 +22.6 6
09 9.09 ЮЗ 2 12 км 8/8 360 м
[Cu Sc Ac trans]
+25.9 +24.0 89 +36 +38 очень
душно
1016.5 998.3
12 9.09 З 1 12 км 8/8 480 м
[Cu med, cong]
+28.6 +23.2 73 +39 +44 очень
душно
1014.8 996.8
18 9.09 СЗ 1 12 км 8/3 480 м
[Cb cap Ci sp]
+28.1 +23.0 74 +38 +38 очень
душно
1012.1 994.1 +31.0
12 10.09 СЗ 4 14 км 8/8 450 м
[Cu med, cong]
+28.6 +23.7 75 +39 +43 очень
душно
1013.8 995.8
18 10.09 СЗ 1 14 км 8/0
[Ac trans]
+26.0 +22.8 83 +35 +35 очень
душно
1010.5 992.4 +28.6
03 11.09 штиль 0 14 км 9/4 360 м
[Sc Ac trans]
+23.5 +22.4 94 +31 +31 очень
душно
1012.0 993.7
06 11.09 ЮЗ 1 14 км 8/4 360 м
[Sc Ac trans]
+23.1 +22.3 95 +32 +32 очень
душно
1012.8 994.5 +22.8
09 11.09 ЮЗ 2 14 км 9/4 450 м
[Cu med, cong Ac trans]
+27.0 +23.6 82 +37 +41 очень
душно
1014.0 995.9
12 11.09 ЮЗ 2 14 км 8/6 480 м
[Cu med, cong Ac trans Ci sp]
+29.1 +24.2 75 +41 +47 опасность
перегрева
1012.6 994.7
15 11.09 ЮЗ 2 12 км гроза, ливневой дождь 9/8 360 м
[Cb cap Ac trans]
+24.2 +23.2 94 +32 +34 очень
душно
1010.7 992.5
21 11.09 СВ 1 14 км 9/4 360 м
[Sc Ac trans]
+24.5 +23.1 92 +33 +33 очень
душно
1012.7 994.5
00 12.09 штиль 0 14 км 9/9 360 м
[Sc]
+24.4 +23.3 94 +33 +33 очень
душно
1013.1 994.9
03 12.09 ЮЗ 1 14 км 9/9 360 м
[Sc]
+23.5 +22.8 96 +31 +31 очень
душно
1011.7 993.5
09 12.09 СЗ 1 14 км 6/6 480 м
[Cu med, cong]
+26.5 +26.5 100 +40 +46 очень
душно
1013.7 995.6
12 12.09 ЮВ 2 14 км 8/6 480 м
[Cu med, cong Ac trans Ci sp]
+30.1 +24.3 71 +42 +49 опасность
перегрева
1012.4 994.5
15 12.09 ЮВ 1 14 км 8/6 480 м
[Cu med, cong Ac trans Ci sp]
+30.2 +24.1 70 +42 +46 опасность
перегрева
1009.7 991.9
18 12.09 ЮВ 1 14 км 8/4 480 м
[Cu Sc Ac trans Ci sp]
+26.8 +23.2 81 +36 +36 очень
душно
1011.4 993.4 +30.7
21 12.09 ЮВ 2 14 км 9/9 360 м
[Sc]
+24.7 +23.0 90 +33 +33 очень
душно
1013.7 995.5
00 13.09 ЮЗ 1 14 км 9/9 360 м
[Sc]
+24.1 +23.3 95 +32 +32 очень
душно
1013.6 995.4
03 13.09 ЮЗ 1 14 км 9/9 360 м
[Sc]
+24.0 +23.2 95 +32 +32 очень
душно
1013.0 994.8
06 13.09 штиль 0 14 км 9/8 360 м
[Sc Ac trans]
+24.0 +22.9 94 +32 +32 очень
душно
1013.8 995.5 +23.7
09 13.09 ЮЗ 1 14 км 8/6 360 м
[Cu Sc Ac trans]
+27.2 +23.6 81 +37 +41 очень
душно
1015.8 997.7
12 13.09 ЮВ 1 14 км 8/8 480 м
[Cu med, cong Ac trans]
+30.2 +24.1 70 +42 +47 опасность
перегрева
1013.6 995.7
18 13.09 ЮЗ 1 14 км 8/4 360 м
[Cu Sc Ac trans]
+27.6 +24.1 81 +38 +38 очень
душно
1011.8 993.8 +30.7
21 13.09 ЮЗ 1 14 км 8/5 360 м
[Sc Ac trans]
+24.9 +23.2 90 +33 +33 очень
душно
1013.7 995.5
00 14.09 СЗ 2 14 км 9/9 360 м
[Sc]
+24.3 +23.1 93 +32 +32 очень
душно
1013.9 995.7
03 14.09 ЮЗ 1 14 км 9/9 360 м
[Sc]
+24.0 +22.6 92 +31 +31 очень
душно
1012.9 994.7
09 14.09 СЗ 1 14 км 9/8 360 м
[Cu Sc Ac trans]
+26.0 +22.8 83 +35 +37 очень
душно
1015.8 997.6
12 14.09 СВ 2 14 км гроза без осадков 9/6 450 м
[Cb cap Ac trans]
+27.9 +23.9 79 +39 +44 очень
душно
1013.4 995.4
15 14.09 ЮЗ 1 14 км {гроза} 8/5 450 м
[Cu med, cong Cs]
+28.0 +21.7 69 +36 +42 очень
душно
1009.9 992.0

 

Местоположение метеостанции Хо (Гана): широта 6.60 долгота 0.47 высота над уровнем моря 158 м.

В архиве по умолчанию представлена погода в Хо за последнюю неделю. Архивные данные за месяц целиком и за предыдущие месяцы, начиная с января 2011 года, Вы можете получить, выбрав интересующий диапазон дат из раскрывающегося списка и нажав кнопку "Ввод!".


*Определитесь, кто Вы:
робот инопланетянин человек

Внимание! Время в таблицах - всемирное. Для получения местного времени необходимо прибавить поправку, которая равна 1 ч.

Смотрите также архив погоды в соседних городах и на ближайших метеорологических станциях:

Погода в Акатзи (Гана) (65 км)
Погода в Акюсе (Гана) (68 км)
Погода в Ада (Гана) (93 км)
Погода в Кофоридуа (Гана) (98 км)
Погода в Ломе (Того) (99 км)
Погода в Таблигбо (Того) (114 км)
Погода в Тема (Гана) (121 км)
Погода в Атакпаме (Того) (130 км)
Погода в Аккра (Гана) (132 км)
Погода в Абетифи (Гана) (135 км)

Пояснения к столбцам:

Ветер - указаны скорость ветра в м/с - средняя за 10 мин, порывы в срок и между сроками (в фигурных скобках) и направление, откуда дует ветер: С - северный, СВ - северо-восточный, В - восточный, ЮВ - юго-восточный, Ю - южный, ЮЗ - юго-западный, З - западный, СЗ - северо-западный.
Видимость - горизонтальная дальность видимости в метрах или километрах. При видимости от 1 до 10 км при отсутствии осадков обычно наблюдается дымка, при ухудшении видимости до 1 км и менее - туман. В сухую погоду видимость может ухудшаться дымом, пылью или мглою.
Явления - указаны атмосферные явления, наблюдавшиеся в срок или в последний час перед сроком; фигурными скобками обозначены явления, наблюдавшиеся между сроками (за 1-3 часа до срока); квадратными скобками обозначены град или гололедные отложения с указанием их диаметра в мм.
Облачность - указаны через наклонную черту общая и нижняя облачность в баллах и высота нижней границы облаков в метрах; квадратными скобками обозначены формы облаков: Ci - перистые, Cs - перисто-слоистые, Cc - перисто-кучевые, Ac - высококучевые, As - высокослоистые, Sc - слоисто-кучевые, Ns - слоисто-дождевые, Cu - кучевые, Cb - кучево-дождевые. Подробнее классификацию облаков см. в Атласе облаков (PDF).
T - Температура воздуха - температура, измеренная на высоте 2 м над землей.
Td - Температура точки росы - температура, при понижении до которой содержащийся в воздухе водяной пар достигнет насыщения.
f - Относительная влажность воздуха - влажноcть воздуха, измеренная на высоте 2 м над землей.
Te - Эффективная температура - температура, которую ощущает одетый по сезону человек в тени. Характеристика душности погоды. При расчете учитывается влияние влажности воздуха и скорости ветра на теплоощущения человека.
Tes - Эффективная температура на солнце - температура, которую ощущает человек, с поправкой на солнечный нагрев. Характеристика знойности погоды. Зависит от высоты солнца над горизонтом, облачности и скорости ветра. Ночью, в пасмурную погоду, а также при ветре 12 м/с и более поправка равна нулю.
P - Атмосферное давление - приведенное к уровню моря атмосферное давление.
Po - Атмосферное давление - измеренное на уровне метеостанции атмосферное давление.
Tmin - Минимальная температура - минимум температуры воздуха на высоте 2 м над землей.
Tmax - Максимальная температура - максимум температуры воздуха на высоте 2 м над землей.
R - Количество осадков - Количество выпавших осадков за период времени, мм. При наведении курсора мыши на число - период времени, за который выпало указанное количество осадков.
R24 - Количество осадков - Количество выпавших осадков за 24 часа, мм.
S - Снежный покров - Высота снежного покрова, см. При наведении курсора мыши на число - состояние снежного покрова и степень покрытия местности в баллах.